Location: Holyhead Bay
(53.3667°N, 4.6667°W)
Time: 19:13:06
(UTC+00:00)

CZ-4B R/B - Pass Details

Date: 24 November 2020
Orbit: 390 x 458 km, 97.6° (Epoch: 16 January)

Event Time Altitude Azimuth Distance (km) Brightness Sun altitude
Exits shadow 18:53:01 36° 292° (WNW) 648 2.6 -23.5°
Maximum altitude 18:53:03 36° 291° (WNW) 648 2.6 -23.5°
Drops below altitude 10° 18:55:54 10° 223° (SW) 1,444 4.5 -23.9°
Sets 18:57:57 0° 214° (SW) 2,305 5.5 -24.2°
